Location: ??????????
(54.4061°N, 22.6114°E)
Time: 01:08:56
(UTC+00:00)

Cosmos 2173 Rocket - Pass Details

Date: 23 October 2019
Orbit: 944 x 1001 km, 83.0° (Epoch: 14 November)

Event Time Altitude Azimuth Distance (km) Brightness Sun altitude
Rises 16:20:51 0° 350° (N) 3,702 7.1 -10.3°
Reaches altitude 10° 16:23:32 10° 357° (N) 2,742 6.3 -10.7°
Maximum altitude 16:29:32 45° 69° (ENE) 1,300 4.3 -11.6°
Drops below altitude 10° 16:35:24 10° 142° (SE) 2,688 6.0 -12.4°
Sets 16:38:00 0° 148° (SSE) 3,622 6.7 -12.8°
